Terminal Aerodrome Forecast
Issued by NWS Blacksburg, VA

Current Version | Previous Version | Graphics & Text | Print | Product List | Glossary On
Versions: 1 2 3 4 5 6 7 8 9 10 11 12 13 14 15 16 17 18 19 20 21 22 23 24 25 26 27 28 29 30 31
762
FTUS41 KRNK 050520
TAFBLF
TAF
KBLF 050520Z 0506/0606 31010G16KT P6SM OVC030
     FM050700 31011G21KT P6SM -SHSN OVC020
     FM051500 30013G25KT P6SM BKN025
     FM052100 29007KT P6SM SCT250=

USA.gov is the U.S. government's official web portal to all federal, state and local government web resources and services.